Simultaneous Nadir Overpasses (SNOs) Predictions

Prediction of SNOs between GOES-14 and AQUA Satellite Orbit:

Table of predicted SNOs for the next 14.0 days since TLE Epoch: 11/18/2023
Index Date Time (GOES-14) GOES-14 Lat,Lon AQUA Lat,Lon Distance(km) Time Diff (sec)
1 11/19/2023 21:10:20 0.01,-108.58 0.15,-108.00 67.05 80
2 11/20/2023 09:28:12 -0.04,-108.63 0.88,-112.97 493.75 80
3 11/21/2023 20:55:19 0.01,-108.58 0.94,-104.33 484.32 80
4 11/22/2023 09:13:10 -0.03,-108.63 0.14,-109.29 76.39 80
5 11/24/2023 09:00:49 -0.02,-108.63 -0.68,-105.63 341.48 80
6 11/24/2023 21:18:49 0.04,-108.59 -0.40,-110.63 232.84 80
7 11/26/2023 21:06:27 0.03,-108.59 0.40,-106.97 185.07 80
8 11/27/2023 09:24:17 -0.05,-108.63 0.67,-111.93 375.74 80
9 11/29/2023 09:11:54 -0.04,-108.63 -0.11,-108.25 42.14 80
10 12/01/2023 08:56:51 -0.03,-108.63 -0.91,-104.58 460.22 80
11 12/01/2023 21:14:50 0.05,-108.58 -0.19,-109.58 113.68 80
